This demonstration page uses our WeatherBlox Daily Observations layout. Learn more.

Left ArrowRight Arrow

Hourly Observations for February 23, 2016

Temp ( °F °C ) Dew Point ( °F °C ) Humidity (%) Winds ( mph kmh ) Pressure ( in mb ) Visibility ( mi km ) Precip ( " mm )
12:51 am 00:51 Clear 55 12.8 20 -6.7 25 25 WNW 14 22 29.78 1008 10 16.0934 N/A
1:51 am 01:51 Clear 53 11.7 19 -7.2 26 26 NW 13 20 29.8 1009 10 16.0934 N/A
2:51 am 02:51 Clear 51 10.6 18 -7.8 27 27 W 13 20 29.82 1010 10 16.0934 N/A
3:51 am 03:51 Clear 50 10 17 -8.3 27 27 WNW 15 24 29.83 1010 10 16.0934 N/A
4:51 am 04:51 Clear 50 10 16 -8.9 26 26 NW 16 26 29.84 1011 10 16.0934 N/A
5:51 am 05:51 Clear 49 9.4 16 -8.9 27 27 WNW 16 26 29.87 1011 10 16.0934 N/A
6:51 am 06:51 Clear 45 7.2 17 -8.3 33 33 NW 10 17 29.91 1013 10 16.0934 N/A
7:51 am 07:51 Sunny 51 10.6 17 -8.3 26 26 NW 14 22 29.94 1014 10 16.0934 N/A
8:51 am 08:51 Sunny 53 11.7 17 -8.3 24 24 WNW 16 26 29.95 1014 10 16.0934 N/A
9:51 am 09:51 Sunny 57 13.9 17 -8.3 21 21 WNW 16 26 29.95 1014 10 16.0934 N/A
10:51 am 10:51 Sunny 59 15 18 -7.8 20 20 NW 16 26 29.95 1014 10 16.0934 N/A
11:51 am 11:51 Sunny 61 16.1 16 -8.9 17 17 NW 20 31 29.94 1014 10 16.0934 N/A
12:51 pm 12:51 Sunny 63 17.2 11 -11.7 13 13 NW 14 22 29.91 1013 10 16.0934 N/A
1:51 pm 13:51 Sunny 63 17.2 12 -11.1 13 13 NW 18 30 29.89 1012 10 16.0934 N/A
2:51 pm 14:51 Sunny 64 17.8 11 -11.7 12 12 WNW 21 33 29.89 1012 10 16.0934 N/A
3:51 pm 15:51 Sunny 64 17.8 10 -12.2 12 12 W 21 33 29.89 1012 10 16.0934 N/A
4:51 pm 16:51 Sunny 64 17.8 8 -13.3 11 11 WNW 20 31 29.9 1013 10 16.0934 N/A
5:51 pm 17:51 Sunny 61 16.1 10 -12.2 13 13 WNW 18 30 29.93 1014 10 16.0934 N/A
6:51 pm 18:51 Clear 57 13.9 11 -11.7 16 16 WNW 15 24 29.98 1015 10 16.0934 N/A
7:51 pm 19:51 Clear 53 11.7 13 -10.6 20 20 WNW 10 17 30.01 1016 10 16.0934 N/A
8:51 pm 20:51 Clear 47 8.3 14 -10 26 26 NW 7 11 30.06 1018 10 16.0934 N/A
9:51 pm 21:51 Clear 47 8.3 15 -9.4 28 28 NW 8 13 30.08 1019 10 16.0934 N/A
10:51 pm 22:51 Clear 45 7.2 15 -9.4 30 30 N 5 7 30.1 1019 10 16.0934 N/A
11:51 pm 23:51 Clear 47 8.3 15 -9.4 28 28 SSE 15 24 30.14 1021 10 16.0934 N/A

Powered by AerisWeather